Location: Peebles
(55.6412°N, 3.1714°W)
Time: 08:07:36
(UTC+00:00)

COSMOS 2251 DEB - Pass Details

Date: 02 December 2022
Orbit: 738 x 761 km, 74.0° (Epoch: 29 January)

Event Time Altitude Azimuth Distance (km) Brightness Sun altitude
Exits shadow 05:47:57 14° 343° (NNW) 1,968 ? -19.9°
Drops below altitude 10° 05:50:04 10° 8° (N) 2,261 ? -19.6°
Sets 05:53:32 0° 32° (NNE) 3,189 ? -19.1°
